[[{"header":{"parameterUnit":"m.s-1","parameterCategory":2,"la1":30.2992,"la2":30.254,"lo1":-89.0895,"lo2":-89.0443,"dy":0.0025,"dx":0.0025,"nx":19,"ny":19,"refTime":"2026-05-23T21:00:00:Z","depth":"0","parameterNumber":2,"parameterNumberName":"U-component_of_CURRENTS"},"data":[0,0,0,0.0005,0.0006,0.003,0.003,-0.0036,-0.0037,0,0,0,0,0,0,0,0,0,0,0,-0.0011,-0.001,0.0005,0.0006,0.003,0.003,-0.0036,-0.0037,0,0,0,0,0,0,0,0,0,0,0,-0.0011,-0.0011,-0.001,0.0006,0.003,0.003,-0.0036,-0.0033,0,0,0,0,0,0,0,0,0,0,-0.0045,-0.0042,-0.0011,-0.001,0.0007,0.003,0.003,-0.0032,-0.0033,-0.007,0,-0.0059,0,-0.0042,-0.0042,-0.0042,0,0,0,-0.0007,-0.004,-0.003,-0.001,0.0007,0.003,0.0016,-0.0032,-0.0033,-0.0072,-0.006,-0.0061,-0.0043,-0.0042,-0.0043,-0.0118,-0.0118,0,0,-0.0009,-0.0015,-0.0029,-0.0031,0.002,0.0015,0.0016,-0.0032,-0.0036,-0.006,-0.0062,-0.0044,-0.0043,-0.0044,-0.0118,-0.0118,0,0,0,-0.0003,-0.0016,-0.0003,-0.0029,-0.0013,0.0016,0.0018,-0.0033,-0.0027,-0.0063,-0.0045,-0.0043,-0.0044,-0.0117,-0.0118,-0.0025,0,0,0,-0.0005,-0.0011,-0.0003,-0.0008,-0.0011,-0.0009,0.0017,-0.0024,-0.0028,-0.0045,-0.0043,-0.0045,-0.0117,-0.0118,-0.0027,0.0017,0,0,0,-0.0013,-0.0012,-0.0006,-0.0008,0.001,-0.0007,-0.0004,-0.0024,-0.0018,-0.0042,-0.0045,-0.0117,-0.0117,-0.0028,0.0014,0.0045,0,0,0,-0.0026,-0.0012,-0.0006,0.0018,0.001,0.0036,-0.0003,0.0001,-0.0014,-0.0044,-0.0117,-0.0118,-0.0029,0.0011,0.0043,0.0097,0.0113,0,0,-0.0015,-0.0011,0.0006,0.0013,0.005,0.0032,0.0055,0.0015,-0.0042,-0.011,-0.0111,-0.0026,0.0013,0.0044,0.0066,0.0083,0,0,0,0.0006,0.0017,0.0029,0.0056,0.0072,0.0091,0.0061,0.0028,-0.0024,-0.005,-0.0063,-0.0042,-0.0025,0.0001,0.0014,0.0047,-0.012,-0.012,-0.012,-0.0004,0.0026,0.0057,0.0094,0.0113,0.0122,0.0122,0.0065,0.0008,-0.0014,0.0006,0.0056,0.0083,0.0094,0.0127,-0.0028,-0.0028,-0.0028,-0.0028,0.0018,0.0045,0.0083,0.0122,0.0154,0.0171,0.0161,0.0135,0.0106,0.0041,0.0054,0.0064,0.0114,0.0143,-0.0022,-0.0023,-0.0024,-0.0024,-0.0025,0.0017,0.0037,0.0064,0.0125,0.0172,0.0199,0.0237,0.0221,0.0177,0.0203,0.0201,0.02,0.025,0.0203,0.0203,0.0203,0.0204,0.0204,0.0204,0.0004,0.0037,0.0067,0.0125,0.0161,0.0216,0.0273,0.0295,0.0321,0.0299,0.0299,0.0267,0.0125,0.0144,0.0209,0.0208,0.0208,0.0207,0.0207,0.0015,0.0019,0.0067,0.01,0.0183,0.0242,0.0304,0.0401,0.0424,0.045,0.0446,0.0341,0.0315,0.0304,0.0325,0.0433,0.0433,0.0433,0.0433,0.0008,0.0017,0.0074,0.0127,0.0192,0.026,0.0365,0.0458,0.0535,0.0569,0.0557,0.0527,0.0517,0.0499,0.0483,0.0505,0.0657,0.0657,0.0657,0.0011,0.0031,0.0067,0.0125,0.0201,0.0281,0.0384,0.0494,0.0617,0.0667,0.0598,0.0588,0.054,0.052,0.0482,0.0457,0.0488,0,0]},{"header":{"parameterUnit":"m.s-1","parameterCategory":2,"la1":30.2992,"la2":30.254,"lo1":-89.0895,"lo2":-89.0443,"dy":0.0025,"dx":0.0025,"nx":19,"ny":19,"refTime":"2026-05-23T21:00:00:Z","depth":"0","parameterNumber":3,"parameterNumberName":"V-component_of_CURRENTS"},"data":[0,0,0,-0.0789,-0.0791,-0.0912,-0.0913,-0.1034,-0.1035,0,0,0,0,0,0,0,0,0,0,0,-0.0752,-0.0753,-0.0788,-0.0791,-0.0912,-0.0913,-0.1034,-0.1035,0,0,0,0,0,0,0,0,0,0,0,-0.0752,-0.0752,-0.0753,-0.0791,-0.0912,-0.0913,-0.1034,-0.0953,0,0,0,0,0,0,0,0,0,0,-0.0841,-0.0799,-0.0752,-0.0753,-0.0792,-0.0912,-0.0913,-0.095,-0.0958,-0.0967,0,-0.0986,0,-0.1006,-0.1042,-0.1042,0,0,0,-0.0802,-0.0792,-0.0831,-0.0754,-0.0793,-0.0911,-0.086,-0.0955,-0.0964,-0.0978,-0.0988,-0.0993,-0.1008,-0.1042,-0.1043,-0.1184,-0.1185,0,0,-0.0795,-0.0769,-0.0825,-0.0837,-0.0825,-0.0856,-0.0864,-0.0961,-0.0966,-0.0989,-0.0996,-0.101,-0.1043,-0.1044,-0.1183,-0.1184,0,0,0,-0.0769,-0.0764,-0.0801,-0.0832,-0.0853,-0.086,-0.0868,-0.0962,-0.0977,-0.0997,-0.1012,-0.1043,-0.1045,-0.1182,-0.1183,-0.1171,0,0,0,-0.0765,-0.0748,-0.0798,-0.0783,-0.0851,-0.0911,-0.0867,-0.0971,-0.0982,-0.1011,-0.1043,-0.1045,-0.1181,-0.1183,-0.1169,-0.1125,0,0,0,-0.0746,-0.0745,-0.0761,-0.0781,-0.0829,-0.091,-0.0931,-0.0974,-0.099,-0.1042,-0.1046,-0.118,-0.1182,-0.1167,-0.1124,-0.1132,0,0,0,-0.0713,-0.0735,-0.0761,-0.0795,-0.0828,-0.0913,-0.093,-0.0996,-0.1042,-0.1044,-0.1181,-0.1183,-0.1167,-0.1124,-0.1132,-0.1088,-0.1087,0,0,-0.072,-0.0735,-0.0757,-0.0783,-0.0853,-0.0897,-0.0975,-0.1037,-0.1077,-0.1146,-0.115,-0.1169,-0.1124,-0.1132,-0.1202,-0.1197,0,0,0,-0.0747,-0.0763,-0.0791,-0.0837,-0.0902,-0.0959,-0.103,-0.1074,-0.1158,-0.1112,-0.1213,-0.1185,-0.119,-0.1165,-0.1162,-0.1172,-0.1192,-0.1192,-0.1192,-0.0707,-0.0756,-0.08,-0.0869,-0.0921,-0.1014,-0.1068,-0.1144,-0.1181,-0.1229,-0.1209,-0.1247,-0.1225,-0.1221,-0.1233,-0.127,-0.127,-0.127,-0.127,-0.0716,-0.0738,-0.0803,-0.0861,-0.0927,-0.0991,-0.1103,-0.1146,-0.1227,-0.1251,-0.1258,-0.1195,-0.1216,-0.1231,-0.1269,-0.127,-0.127,-0.127,-0.127,-0.0682,-0.0698,-0.0746,-0.0823,-0.0883,-0.0969,-0.1024,-0.1109,-0.1192,-0.1209,-0.1197,-0.1197,-0.1177,-0.1224,-0.1224,-0.1224,-0.1224,-0.1224,-0.1224,-0.0616,-0.0669,-0.0704,-0.0782,-0.0819,-0.0878,-0.0977,-0.1026,-0.1104,-0.1162,-0.1162,-0.12,-0.1233,-0.1197,-0.1222,-0.1222,-0.1222,-0.1223,-0.1223,-0.057,-0.0592,-0.0644,-0.0683,-0.0774,-0.0807,-0.089,-0.097,-0.1027,-0.1059,-0.1134,-0.1153,-0.1144,-0.1147,-0.1111,-0.1111,-0.1111,-0.1111,-0.1111,-0.0517,-0.0538,-0.0597,-0.0651,-0.0712,-0.0776,-0.0809,-0.0893,-0.1015,-0.1072,-0.1096,-0.1108,-0.1112,-0.1103,-0.1107,-0.1071,-0.1062,-0.1062,-0.1062,-0.0482,-0.051,-0.0535,-0.0611,-0.0687,-0.0737,-0.0758,-0.0807,-0.0987,-0.1063,-0.112,-0.1122,-0.1145,-0.1151,-0.1142,-0.1148,-0.109,0,0]}],[{"header":{"parameterUnit":"m.s-1","parameterCategory":2,"la1":30.2992,"la2":30.254,"lo1":-89.0895,"lo2":-89.0443,"dy":0.0025,"dx":0.0025,"nx":19,"ny":19,"refTime":"2026-05-23T21:00:00:Z","depth":"2","parameterNumber":2,"parameterNumberName":"U-component_of_CURRENTS"},"data":[0,0,0,-0.1081,-0.1082,-0.1113,-0.1113,-0.1107,-0.1107,0,0,0,0,0,0,0,0,0,0,0,-0.1062,-0.1062,-0.1081,-0.1082,-0.1113,-0.1113,-0.1107,-0.1107,0,0,0,0,0,0,0,0,0,0,0,-0.1062,-0.1062,-0.1062,-0.1082,-0.1113,-0.1113,-0.1107,-0.1095,0,0,0,0,0,0,0,0,0,0,-0.107,-0.1052,-0.1062,-0.1062,-0.1082,-0.1113,-0.1113,-0.1095,-0.1096,-0.1081,0,-0.1082,0,-0.1097,-0.1106,-0.1106,0,0,0,-0.1081,-0.1051,-0.1069,-0.1062,-0.1082,-0.1113,-0.1098,-0.1096,-0.1097,-0.1082,-0.1082,-0.1082,-0.1097,-0.1106,-0.1106,-0.1186,-0.1187,0,0,-0.1079,-0.1059,-0.1068,-0.1069,-0.1084,-0.1098,-0.1099,-0.1097,-0.1088,-0.1082,-0.1082,-0.1097,-0.1106,-0.1105,-0.1185,-0.1186,0,0,0,-0.1075,-0.1058,-0.1076,-0.1069,-0.108,-0.1098,-0.1101,-0.1088,-0.1097,-0.1083,-0.1097,-0.1105,-0.1105,-0.1183,-0.1185,-0.119,0,0,0,-0.1074,-0.1056,-0.1075,-0.1063,-0.108,-0.1089,-0.1092,-0.1097,-0.1098,-0.1097,-0.1105,-0.1105,-0.1182,-0.1184,-0.1188,-0.1149,0,0,0,-0.1062,-0.1055,-0.1059,-0.1062,-0.1078,-0.109,-0.1098,-0.1098,-0.1106,-0.1106,-0.1105,-0.1182,-0.1184,-0.1186,-0.1147,-0.1111,0,0,0,-0.1041,-0.1044,-0.1058,-0.1066,-0.1078,-0.1125,-0.1099,-0.112,-0.1123,-0.1105,-0.1183,-0.1185,-0.1185,-0.1146,-0.111,-0.0928,-0.0915,0,0,-0.1037,-0.1042,-0.1051,-0.1065,-0.1102,-0.1121,-0.1175,-0.1161,-0.1159,-0.1177,-0.1179,-0.1189,-0.1147,-0.1111,-0.1069,-0.1051,0,0,0,-0.1046,-0.105,-0.1063,-0.1085,-0.1124,-0.1164,-0.1185,-0.1209,-0.1235,-0.1174,-0.1237,-0.1211,-0.1187,-0.1079,-0.1066,-0.1196,-0.1196,-0.1196,-0.1196,-0.1001,-0.1038,-0.1057,-0.1107,-0.1141,-0.1205,-0.1233,-0.1276,-0.1275,-0.131,-0.1253,-0.1276,-0.1167,-0.1154,-0.1318,-0.1318,-0.1318,-0.1318,-0.1318,-0.0992,-0.0999,-0.1054,-0.1083,-0.1143,-0.1189,-0.1274,-0.1291,-0.1312,-0.1332,-0.1309,-0.1137,-0.1139,-0.132,-0.132,-0.1319,-0.1319,-0.1319,-0.1319,-0.0948,-0.096,-0.0984,-0.1029,-0.1076,-0.1149,-0.1162,-0.1229,-0.1279,-0.127,-0.1116,-0.1113,-0.1212,-0.1248,-0.1247,-0.1247,-0.1247,-0.1247,-0.1247,-0.0883,-0.0918,-0.0911,-0.0964,-0.0971,-0.1,-0.1076,-0.1084,-0.1072,-0.1082,-0.1081,-0.1251,-0.1253,-0.1209,-0.1242,-0.1243,-0.1244,-0.1244,-0.1244,-0.0828,-0.0828,-0.0819,-0.0817,-0.0836,-0.0791,-0.0867,-0.0814,-0.0843,-0.0793,-0.0973,-0.0981,-0.0941,-0.0951,-0.0901,-0.0851,-0.0851,-0.0851,-0.0851,-0.0764,-0.0774,-0.0739,-0.0718,-0.0695,-0.0698,-0.0544,-0.0495,-0.056,-0.0582,-0.0594,-0.0587,-0.0607,-0.055,-0.0569,-0.0512,-0.0361,-0.0361,-0.036,-0.0718,-0.0718,-0.0674,-0.0667,-0.0633,-0.0565,-0.0364,-0.0198,-0.0223,-0.0346,-0.0565,-0.0808,-0.083,-0.085,-0.0791,-0.081,-0.073,0,0]},{"header":{"parameterUnit":"m.s-1","parameterCategory":2,"la1":30.2992,"la2":30.254,"lo1":-89.0895,"lo2":-89.0443,"dy":0.0025,"dx":0.0025,"nx":19,"ny":19,"refTime":"2026-05-23T21:00:00:Z","depth":"2","parameterNumber":3,"parameterNumberName":"V-component_of_CURRENTS"},"data":[0,0,0,0.0018,0.002,0.0122,0.0123,0.0339,0.0341,0,0,0,0,0,0,0,0,0,0,0,-0.0029,-0.0029,0.0018,0.002,0.0122,0.0123,0.0339,0.0341,0,0,0,0,0,0,0,0,0,0,0,-0.0029,-0.0029,-0.0029,0.002,0.0122,0.0123,0.0339,0.0245,0,0,0,0,0,0,0,0,0,0,0.0137,0.005,-0.0029,-0.0029,0.0021,0.0122,0.0123,0.024,0.0251,0.031,0,0.03,0,0.0324,0.0356,0.0356,0,0,0,0.0042,0.004,0.009,-0.0029,0.0021,0.0122,0.0082,0.0246,0.0258,0.0325,0.0304,0.0312,0.0328,0.0357,0.0358,0.0465,0.0465,0,0,0.0036,-0.0019,0.008,0.0096,0.0017,0.0079,0.0085,0.0253,0.0242,0.0304,0.0317,0.0331,0.0359,0.036,0.0466,0.0465,0,0,0,0.0005,-0.0024,0.002,0.0088,0.0098,0.0081,0.0089,0.0234,0.0254,0.0319,0.0334,0.036,0.0362,0.0466,0.0465,0.0312,0,0,0,0.0003,-0.0042,0.0016,-0.0016,0.0094,0.015,0.0066,0.0242,0.0261,0.0333,0.036,0.0365,0.0467,0.0466,0.0318,0.0277,0,0,0,-0.0028,-0.0046,-0.0039,-0.0019,0.0019,0.0148,0.0176,0.0246,0.0271,0.0357,0.0365,0.0467,0.0466,0.0322,0.0285,0.0225,0,0,0,-0.0077,-0.0071,-0.0042,-0.0025,0.0018,0.0108,0.0176,0.0233,0.0295,0.0361,0.0467,0.0466,0.0324,0.029,0.0229,0.0345,0.0332,0,0,-0.0084,-0.0075,-0.0056,-0.0025,0.0041,0.0097,0.0145,0.0236,0.0303,0.0423,0.0426,0.0316,0.0286,0.0226,0.0284,0.0273,0,0,0,-0.0064,-0.006,-0.003,0.0003,0.0077,0.011,0.0196,0.0212,0.0254,0.0332,0.0338,0.0325,0.0291,0.0371,0.0362,0.0461,0.0461,0.0461,0.0461,-0.0143,-0.0084,-0.0049,0.0022,0.006,0.0118,0.0124,0.0161,0.0234,0.0195,0.0214,0.0089,0.0173,0.0168,0.0219,0.0219,0.0218,0.0218,0.0217,-0.0143,-0.0121,-0.0071,-0.0027,0.0008,0.0028,0.0063,0.0055,0.0035,0.0103,0.0076,0.0225,0.0149,0.0206,0.0208,0.0209,0.0211,0.0212,0.0212,-0.0199,-0.0176,-0.0158,-0.0103,-0.0092,-0.0046,-0.0041,-0.0056,-0.0084,-0.013,-0.0008,-0.0003,-0.0,-0.0151,-0.0152,-0.0152,-0.0153,-0.0153,-0.0153,-0.0269,-0.023,-0.0221,-0.0167,-0.0148,-0.0124,-0.0113,-0.0117,-0.0136,-0.0136,-0.0134,-0.0034,-0.0022,-0.0019,-0.0161,-0.016,-0.0159,-0.0158,-0.0157,-0.03,-0.0311,-0.0277,-0.0256,-0.0164,-0.0089,-0.0081,-0.006,-0.0109,-0.0113,-0.0126,-0.0124,-0.0053,-0.0041,-0.0036,-0.0175,-0.0175,-0.0175,-0.0175,-0.0344,-0.0335,-0.0297,-0.0235,-0.0141,-0.006,0.0014,0.0016,-0.0044,-0.0079,-0.0084,0.0016,0.0016,0.0098,0.0106,0.0118,0.0018,0.0018,0.0018,-0.0346,-0.034,-0.0308,-0.0241,-0.0117,-0.0006,0.0068,0.0116,0.0103,0.0021,-0.0097,-0.0153,-0.0011,-0.0011,0.0119,0.013,0.015,0,0]}],[{"header":{"parameterUnit":"m.s-1","parameterCategory":2,"la1":30.2992,"la2":30.254,"lo1":-89.0895,"lo2":-89.0443,"dy":0.0025,"dx":0.0025,"nx":19,"ny":19,"refTime":"2026-05-23T21:00:00:Z","depth":"4","parameterNumber":2,"parameterNumberName":"U-component_of_CURRENTS"},"data":[0,0,0,-0.0402,-0.0406,-0.0568,-0.0568,-0.0671,-0.0672,0,0,0,0,0,0,0,0,0,0,0,-0.0337,-0.0339,-0.0401,-0.0406,-0.0568,-0.0568,-0.0671,-0.0672,0,0,0,0,0,0,0,0,0,0,0,-0.0337,-0.0338,-0.034,-0.0407,-0.0568,-0.0568,-0.0671,-0.0571,0,0,0,0,0,0,0,0,0,0,-0.0425,-0.0397,-0.0338,-0.034,-0.0408,-0.0568,-0.0569,-0.0567,-0.0577,-0.0572,0,-0.061,0,-0.0652,-0.0678,-0.0678,0,0,0,-0.0391,-0.0389,-0.0427,-0.034,-0.0409,-0.0568,-0.0491,-0.0573,-0.0584,-0.0585,-0.0612,-0.0617,-0.0654,-0.0678,-0.0679,-0.0691,-0.0691,0,0,-0.0382,-0.0369,-0.0419,-0.0434,-0.0467,-0.0486,-0.0496,-0.0581,-0.06,-0.0612,-0.062,-0.0656,-0.0679,-0.0679,-0.0692,-0.0691,0,0,0,-0.0366,-0.0363,-0.04,-0.0428,-0.0472,-0.0491,-0.0502,-0.0596,-0.0608,-0.0621,-0.0657,-0.0679,-0.068,-0.0693,-0.0692,-0.072,0,0,0,-0.036,-0.0355,-0.0396,-0.039,-0.0472,-0.0555,-0.0515,-0.0602,-0.0614,-0.0656,-0.0679,-0.0681,-0.0693,-0.0692,-0.0721,-0.0723,0,0,0,-0.0327,-0.0352,-0.0373,-0.0389,-0.0467,-0.0555,-0.0572,-0.0605,-0.0635,-0.0678,-0.0681,-0.0693,-0.0692,-0.0721,-0.0724,-0.0713,0,0,0,-0.0302,-0.0341,-0.0374,-0.0439,-0.0466,-0.0551,-0.0572,-0.0651,-0.0692,-0.068,-0.0693,-0.0692,-0.0721,-0.0724,-0.0714,-0.0584,0,0,0,-0.0328,-0.0345,-0.0382,-0.0415,-0.0465,-0.0526,-0.0583,-0.0652,-0.0659,-0.0657,-0.0658,-0.072,-0.0724,-0.0713,-0.0512,0,0,0,0,-0.0376,-0.0391,-0.0416,-0.0465,-0.0529,-0.0578,-0.0653,-0.0658,-0.0679,-0.0682,-0.0687,-0.0688,-0.0681,-0.0604,-0.0686,-0.0686,-0.0686,-0.0686,-0.0686,-0.0345,-0.0388,-0.043,-0.0488,-0.0545,-0.0614,-0.0645,-0.0655,-0.0681,-0.0679,-0.0687,-0.0664,-0.0581,-0.0664,-0.0664,-0.0664,-0.0664,-0.0664,-0.0664,-0.0341,-0.037,-0.0425,-0.0487,-0.0544,-0.0605,-0.0651,-0.067,-0.0663,-0.0672,-0.0664,-0.0609,-0.0666,-0.0666,-0.0665,-0.0665,-0.0665,-0.0665,-0.0665,-0.0307,-0.0326,-0.0384,-0.0452,-0.0529,-0.0616,-0.0626,-0.0667,-0.068,-0.0677,-0.0582,-0.0667,-0.0692,-0.0679,-0.0679,-0.0678,-0.0678,-0.0678,-0.0678,-0.0248,-0.0296,-0.0335,-0.0427,-0.0475,-0.0556,-0.0622,-0.0606,-0.0631,-0.0579,-0.0683,-0.0668,-0.0667,-0.0691,-0.0678,-0.0678,-0.0678,-0.0678,-0.0678,-0.0216,-0.024,-0.0266,-0.0311,-0.0386,-0.0433,-0.0527,-0.0503,-0.0461,-0.0428,-0.0516,-0.0524,-0.0498,-0.0501,-0.0518,-0.0454,-0.0452,-0.0451,0,-0.0178,-0.0198,-0.0204,-0.0216,-0.0224,-0.0343,-0.0277,-0.0298,-0.0344,-0.0341,-0.0443,-0.0543,-0.0548,-0.0519,-0.0519,-0.0537,0,0,0,-0.0149,-0.0155,-0.0137,-0.0152,-0.0153,-0.0181,-0.0259,-0.0238,-0.0369,-0.0293,-0.0407,-0.0419,-0.0521,-0.0676,-0.0655,-0.0654,-0.069,0,0]},{"header":{"parameterUnit":"m.s-1","parameterCategory":2,"la1":30.2992,"la2":30.254,"lo1":-89.0895,"lo2":-89.0443,"dy":0.0025,"dx":0.0025,"nx":19,"ny":19,"refTime":"2026-05-23T21:00:00:Z","depth":"4","parameterNumber":3,"parameterNumberName":"V-component_of_CURRENTS"},"data":[0,0,0,-0.0145,-0.0144,-0.0094,-0.0094,0.0033,0.0035,0,0,0,0,0,0,0,0,0,0,0,-0.0169,-0.0169,-0.0146,-0.0144,-0.0094,-0.0094,0.0033,0.0035,0,0,0,0,0,0,0,0,0,0,0,-0.0169,-0.0169,-0.0168,-0.0144,-0.0094,-0.0094,0.0033,-0.0023,0,0,0,0,0,0,0,0,0,0,-0.008,-0.0115,-0.0169,-0.0168,-0.0143,-0.0094,-0.0094,-0.0026,-0.0019,0.003,0,0.0038,0,0.0048,0.0045,0.0046,0,0,0,-0.0151,-0.0121,-0.0097,-0.0168,-0.0143,-0.0094,-0.0118,-0.0023,-0.0015,0.004,0.004,0.0045,0.005,0.0046,0.0047,0.0197,0.0198,0,0,-0.0154,-0.0167,-0.0103,-0.0092,-0.0127,-0.012,-0.0117,-0.0019,-0.0013,0.0041,0.0048,0.0053,0.0047,0.0048,0.0197,0.0197,0,0,0,-0.0157,-0.0169,-0.0149,-0.0097,-0.0088,-0.0118,-0.0115,-0.0018,-0.0009,0.0049,0.0054,0.0048,0.005,0.0196,0.0197,0.0129,0,0,0,-0.0159,-0.017,-0.0151,-0.0159,-0.0091,-0.0062,-0.0117,-0.0016,-0.0005,0.0053,0.0048,0.0052,0.0196,0.0197,0.013,0.0069,0,0,0,-0.0172,-0.0171,-0.0163,-0.016,-0.0133,-0.0064,-0.005,-0.0014,-0.0,0.0046,0.0052,0.0195,0.0196,0.013,0.0072,0.0105,0,0,0,-0.0191,-0.0186,-0.0164,-0.0162,-0.0133,-0.0102,-0.0051,-0.0013,0.0023,0.0049,0.0196,0.0197,0.013,0.0074,0.0105,0.0108,0,0,0,-0.0197,-0.0187,-0.0188,-0.0167,-0.0167,-0.011,-0.0089,-0.0014,0.0061,0.0166,0.0169,0.0129,0.0072,0.0105,0.0175,0,0,0,0,-0.0199,-0.0198,-0.0195,-0.0189,-0.0159,-0.0145,-0.0062,0.0001,0.01,0.0091,0.0171,0.0138,0.016,0.0167,0.0202,0.0202,0.0202,0.0202,0.0202,-0.0223,-0.0219,-0.0229,-0.0221,-0.0205,-0.0145,-0.0104,0.0005,0.0083,0.0135,0.0114,0.013,0.0138,0.0169,0.0169,0.0169,0.0169,0.0168,0.0168,-0.0237,-0.0244,-0.0253,-0.0261,-0.0252,-0.0224,-0.012,-0.0055,0.0059,0.0108,0.0135,0.0133,0.0163,0.0164,0.0165,0.0165,0.0166,0.0166,0.0166,-0.0255,-0.0258,-0.0268,-0.0287,-0.0304,-0.027,-0.0223,-0.0137,-0.0009,0.0007,0.008,0.0102,0.0073,0.0048,0.0048,0.0048,0.0048,0.0048,0.0048,-0.026,-0.0271,-0.0292,-0.0314,-0.0341,-0.0339,-0.0274,-0.0204,-0.0101,-0.0005,-0.0001,0.0091,0.0095,0.0069,0.0046,0.0046,0.0047,0.0047,0.0047,-0.0263,-0.0273,-0.0296,-0.0326,-0.0376,-0.037,-0.0335,-0.0203,-0.0121,-0.0038,0.0023,0.0025,0.0054,0.006,0.0033,-0.0001,-0.0001,-0.0002,0,-0.0267,-0.0271,-0.03,-0.0345,-0.0376,-0.0385,-0.0288,-0.0214,-0.0093,-0.0076,-0.0108,-0.0044,-0.004,-0.0012,-0.0007,-0.0041,0,0,0,-0.0265,-0.0267,-0.029,-0.0332,-0.0377,-0.0301,-0.0254,-0.0195,-0.0122,-0.0057,-0.0003,-0.0003,-0.0029,0.0041,0.0091,0.0096,0.0058,0,0]}]]